Wind_Speed
49 54 52 53 53 49 45 43 44 37 33 31 38 42 46 45 44 47 46 46 46 46 46 45 44 45 45 46 48 47 48 49 51 50 47 47 29 32 40 39 41 47 50 53
47 46 47 47 45 46 43 41 39 38 28 21 33 35 38 45 44 40 40 40 44 47 47 45 43 41 45 47 47 46 47 47 51 52 50 56 57 39 33 37 44 49 55 58
40 38 43 44 43 45 43 42 37 35 23 18 24 31 39 39 27 25 30 32 37 42 46 45 44 42 44 44 46 46 45 46 51 50 50 51 49 45 28 38 36 48 55 57
35 37 39 40 40 40 42 35 33 36 33 34 33 39 41 29 21 22 22 26 31 36 44 43 44 42 43 43 42 45 46 47 51 51 50 51 53 43 47 53 56 55 50 56
29 35 40 41 38 38 37 39 39 38 40 45 45 45 40 21 21 19 24 25 33 34 34 34 36 38 40 43 45 46 48 51 53 57 58 57 56 51 54 60 57 59 63 58
25 29 34 35 32 27 39 25 23 33 35 41 41 42 40 23 15 22 22 21 24 26 30 34 35 36 37 37 38 41 42 44 48 49 46 48 50 52 55 56 59 60 63 63
23 31 38 38 36 36 33 27 30 29 36 40 39 35 35 24 20 23 26 23 27 31 31 33 33 28 30 32 32 34 38 36 29 29 30 34 41 36 34 37 37 38 41 42
19 28 31 37 36 34 36 42 43 40 36 29 19 23 23 22 24 29 31 31 36 39 28 29 23 27 29 31 33 33 34 33 29 28 29 32 35 35 36 38 38 39 40 42
26 23 25 28 38 34 33 43 38 35 23 26 25 22 14 24 29 22 35 42 38 42 44 25 25 28 30 32 36 37 35 32 31 29 29 31 33 34 35 37 39 42 41 41
31 25 27 20 24 26 31 26 41 37 36 32 26 22 29 29 39 39 33 36 44 43 40 37 38 38 34 34 36 35 36 39 36 33 32 33 36 34 31 30 31 38 39 40
36 33 30 31 28 25 23 24 26 31 34 32 27 36 33 37 37 38 43 43 43 45 47 51 47 42 37 34 35 36 37 39 41 42 40 38 37 35 35 35 35 40 43 45
34 36 37 39 39 37 38 39 35 38 38 36 34 32 28 46 44 46 41 46 44 44 45 47 32 21 22 27 29 31 36 36 38 41 41 40 39 39 40 41 39 39 45 42
23 38 37 36 36 37 40 42 45 42 38 42 40 36 38 42 42 44 41 38 37 31 22 24 25 24 23 22 18 20 20 23 33 41 41 41 40 41 42 43 43 42 45 41
22 29 29 20 32 32 27 36 43 44 43 40 47 34 38 29 38 41 38 33 34 39 38 17 23 30 31 26 22 19 23 30 29 31 34 36 38 40 43 44 45 44 46 48
34 28 32 9 37 27 34 36 36 41 40 42 38 38 42 42 33 28 33 33 36 39 31 11 28 41 33 29 31 31 31 34 39 38 38 39 39 40 41 43 44 44 44 46
23 35 29 21 18 20 32 33 30 30 37 31 38 44 41 38 42 47 40 41 43 41 23 25 28 32 35 37 37 39 41 40 39 41 43 40 41 43 44 44 44 45 47 48
24 31 28 16 15 18 27 25 30 25 23 33 27 26 29 29 38 26 31 26 32 22 25 30 33 36 37 39 39 39 39 39 41 42 43 45 46 46 46 48 50 52 53 54
27 32 23 40 26 16 14 15 19 16 29 25 18 20 22 19 19 18 20 25 30 30 30 32 35 37 38 39 39 40 42 44 45 47 49 49 49 49 50 51 52 53 56 58
20 33 37 28 25 24 26 23 16 16 22 23 30 26 22 20 22 27 27 26 26 29 34 36 36 37 39 41 43 45 47 50 52 53 53 50 48 46 46 47 48 49 50 52
14 13 16 30 23 28 26 22 16 21 21 23 25 26 25 26 29 31 30 30 31 33 35 38 40 42 44 45 47 48 50 48 46 45 42 39 39 39 38 40 41 42 43 44
12 13 14 25 24 27 29 28 22 24 27 27 26 26 26 27 32 32 34 34 34 36 37 40 43 45 47 49 51 51 44 38 38 39 40 41 42 44 44 42 42 42 43 44
8 10 12 17 21 24 28 24 23 25 23 22 25 29 31 32 32 34 35 36 38 39 40 43 45 48 51 51 45 40 37 37 38 38 40 42 44 43 41 39 39 41 42 43
7 7 11 13 17 22 26 27 26 25 30 33 32 30 27 29 32 33 34 37 38 40 42 45 48 49 43 39 37 37 38 41 44 45 46 46 45 41 40 41 42 41 40 37
8 10 11 13 13 16 21 24 26 31 33 35 36 33 31 30 33 36 38 39 40 41 44 47 44 38 35 35 37 37 36 37 38 39 38 36 37 38 38 37 35 32 30 26
10 10 12 13 17 18 19 22 25 26 30 32 31 31 31 34 35 36 37 39 41 44 42 36 33 32 30 28 30 30 29 26 24 22 20 19 18 19 22 22 21 18 13 13
14 15 15 17 18 23 25 27 25 28 29 29 31 32 33 34 35 38 40 41 42 35 31 29 30 24 22 21 20 19 15 11 9 6 5 7 10 13 15 12 7 6 10 13
Wind_Direction
244 242 244 244 242 240 241 239 241 239 248 249 250 246 247 244 243 246 251 254 255 254 253 250 245 249 253 249 249 252 256 258 260 261 259 263 254 262 244 262 268 270 276 270
241 246 242 237 237 237 232 234 237 237 226 224 240 243 249 252 249 248 251 253 255 256 254 253 251 248 250 251 250 250 255 260 260 263 266 260 260 278 239 267 266 272 276 268
240 240 237 233 230 231 231 228 228 232 180 221 241 247 249 247 259 247 247 248 251 256 256 255 250 249 249 251 253 254 252 253 259 259 261 262 264 255 264 273 268 277 280 281
242 235 226 224 227 226 232 228 218 219 186 201 221 238 244 252 261 250 248 252 254 256 256 258 256 252 252 250 249 252 253 254 257 259 258 258 257 261 268 259 269 262 274 277
241 229 220 215 216 225 221 218 207 208 198 210 211 232 239 238 222 228 238 247 259 263 261 260 258 256 254 252 251 250 249 250 249 251 254 258 261 265 261 264 263 263 269 267
231 218 205 219 207 219 212 208 193 212 205 220 230 232 243 219 233 215 212 244 253 256 259 263 259 257 257 257 253 252 251 251 255 261 268 265 265 265 270 273 272 271 277 276
218 210 202 207 203 210 195 193 209 212 222 232 231 229 245 230 190 213 222 239 245 250 244 253 262 272 271 267 264 259 259 257 262 261 255 259 263 266 268 268 270 277 284 289
223 213 205 209 207 204 208 192 204 209 216 221 214 228 237 203 218 212 234 244 251 251 253 251 264 276 272 261 254 253 252 255 253 253 258 263 268 270 272 275 279 278 282 285
220 201 200 214 207 200 205 208 201 206 208 213 218 219 188 177 237 226 223 234 253 257 261 243 245 268 276 274 276 273 264 264 267 267 267 267 271 275 277 278 283 281 283 290
220 207 211 204 193 201 208 209 198 196 200 214 197 185 210 213 226 229 229 238 247 253 257 262 267 266 261 254 262 268 273 277 275 271 271 272 272 273 275 272 276 279 281 289
217 207 204 198 184 205 199 197 204 208 209 212 194 194 212 197 205 216 227 232 242 250 256 262 262 266 256 252 256 257 257 262 268 271 270 268 269 270 270 272 274 276 279 284
221 217 207 203 197 203 202 210 206 207 211 211 202 212 204 194 212 214 225 233 243 253 260 268 261 265 273 263 259 254 258 258 260 266 269 268 268 270 267 267 269 273 278 284
210 205 207 217 213 214 216 208 211 215 214 217 210 214 222 206 203 216 209 221 235 249 195 246 259 278 292 269 255 274 276 265 262 261 264 269 270 271 271 272 271 270 273 276
206 189 193 213 208 202 209 204 213 216 210 208 211 218 225 228 217 218 231 236 262 244 265 226 260 285 293 290 295 288 280 278 273 269 267 267 268 270 271 272 273 273 274 278
213 207 222 221 204 199 208 205 206 216 217 213 217 227 234 238 216 216 222 228 247 263 216 233 292 293 290 296 292 283 278 277 279 276 275 274 272 272 272 272 274 276 277 278
198 210 211 239 219 213 204 210 214 214 226 216 223 227 228 234 234 244 243 255 248 244 264 290 281 282 288 287 283 285 285 282 277 276 276 272 272 272 272 272 272 273 273 273
207 209 200 183 163 173 201 215 230 227 231 230 247 203 228 240 231 251 242 244 239 284 274 273 276 278 280 283 284 283 283 283 283 281 277 275 275 274 273 272 272 273 273 273
208 205 209 219 221 199 193 200 210 228 226 211 238 213 217 241 254 245 252 245 254 263 271 273 275 280 282 283 283 284 284 283 283 282 281 280 278 276 273 271 270 270 271 272
209 222 220 224 230 241 237 224 220 238 212 238 237 258 262 275 268 260 260 265 272 273 273 279 283 282 281 283 283 284 285 285 284 283 281 279 277 275 275 275 276 277 277 274
221 235 228 220 219 233 242 243 224 216 227 227 234 245 252 255 260 267 274 272 273 278 283 284 283 283 282 282 284 286 286 284 280 279 276 270 270 273 277 278 279 279 281 285
211 218 222 220 212 224 233 240 238 226 228 237 242 247 254 256 259 263 266 269 273 276 277 277 278 280 282 286 287 288 283 275 277 277 276 272 271 270 277 277 279 282 282 283
221 229 231 233 228 237 243 250 247 252 254 245 242 243 248 254 258 261 266 269 272 275 278 280 283 287 287 288 285 281 276 275 276 278 275 271 271 273 277 278 279 283 281 280
235 244 237 246 244 236 236 242 243 243 247 248 249 252 251 251 258 264 264 269 273 276 282 287 289 289 289 289 289 284 279 277 278 277 275 273 273 274 275 278 281 284 285 286
217 245 258 236 236 243 233 240 243 239 241 244 247 250 254 258 258 262 267 273 278 283 285 290 289 290 293 290 288 287 285 283 282 281 280 278 274 271 273 274 278 280 282 283
250 252 243 243 224 227 243 243 248 246 244 246 249 250 252 256 260 267 271 273 278 285 289 286 290 291 292 291 293 294 294 288 282 284 285 284 279 273 272 276 276 274 278 289
253 269 271 259 249 244 245 247 244 247 249 251 253 256 261 265 267 269 274 279 286 282 283 286 290 289 296 299 303 301 297 291 301 318 330 314 300 280 263 264 288 300 311 322
Height
5700 5702 5714 5720 5723 5731 5736 5742 5747 5756 5760 5759 5764 5768 5772 5778 5782 5784 5787 5789 5793 5798 5801 5807 5814 5818 5818 5819 5822 5826 5827 5829 5829 5829 5831 5830 5832 5833 5837 5841 5843 5847 5846 5850
5687 5698 5704 5707 5713 5720 5727 5732 5740 5746 5750 5755 5756 5759 5763 5765 5772 5777 5779 5781 5784 5786 5789 5796 5803 5810 5808 5808 5813 5819 5818 5818 5817 5818 5820 5823 5828 5825 5823 5826 5833 5835 5836 5833
5678 5691 5691 5695 5702 5710 5718 5724 5734 5740 5744 5750 5751 5753 5755 5759 5765 5768 5772 5773 5775 5773 5780 5786 5794 5799 5797 5801 5804 5806 5809 5812 5809 5811 5812 5815 5816 5812 5811 5820 5814 5822 5821 5821
5669 5676 5680 5685 5694 5703 5711 5722 5726 5731 5735 5740 5744 5746 5747 5754 5759 5760 5764 5764 5766 5766 5773 5777 5783 5789 5787 5790 5794 5796 5798 5801 5801 5799 5800 5802 5806 5804 5802 5810 5812 5807 5805 5811
5663 5666 5670 5675 5687 5695 5707 5710 5714 5723 5726 5730 5735 5738 5743 5750 5751 5754 5758 5760 5761 5761 5764 5766 5772 5777 5776 5778 5783 5785 5787 5790 5790 5789 5790 5790 5791 5794 5798 5799 5799 5797 5797 5799
5652 5657 5665 5672 5678 5685 5696 5699 5705 5713 5719 5720 5729 5732 5735 5743 5746 5748 5753 5754 5754 5754 5758 5759 5763 5766 5770 5770 5772 5775 5778 5780 5780 5782 5783 5783 5782 5783 5785 5785 5785 5787 5787 5788
5648 5650 5658 5664 5669 5678 5685 5694 5700 5707 5708 5713 5721 5726 5732 5740 5742 5744 5746 5747 5748 5745 5751 5752 5756 5762 5765 5765 5766 5769 5768 5770 5774 5774 5773 5773 5771 5774 5774 5775 5775 5775 5775 5773
5645 5649 5654 5660 5665 5671 5678 5685 5691 5695 5701 5708 5716 5719 5727 5734 5733 5741 5740 5740 5740 5739 5745 5750 5752 5753 5757 5760 5761 5762 5763 5765 5769 5768 5767 5766 5764 5765 5766 5765 5766 5766 5764 5763
5640 5645 5650 5653 5661 5667 5674 5676 5689 5695 5702 5703 5710 5716 5724 5730 5726 5731 5734 5735 5735 5735 5737 5748 5749 5753 5754 5751 5749 5750 5755 5758 5759 5760 5760 5758 5756 5755 5758 5756 5755 5753 5752 5753
5636 5641 5645 5652 5657 5663 5667 5677 5679 5684 5689 5696 5704 5710 5710 5719 5717 5724 5726 5729 5729 5730 5733 5737 5740 5746 5751 5751 5749 5750 5747 5743 5747 5751 5752 5752 5751 5749 5750 5750 5750 5747 5745 5745
5628 5636 5642 5647 5650 5658 5664 5669 5675 5682 5686 5692 5698 5700 5705 5707 5712 5715 5718 5720 5721 5723 5725 5725 5729 5731 5738 5743 5743 5742 5743 5741 5738 5738 5741 5741 5741 5741 5739 5741 5742 5739 5738 5737
5623 5630 5635 5640 5644 5651 5656 5662 5670 5673 5680 5684 5691 5696 5697 5700 5706 5707 5711 5715 5716 5720 5718 5714 5721 5725 5728 5731 5732 5733 5733 5733 5732 5730 5730 5731 5732 5731 5729 5728 5729 5729 5727 5727
5619 5621 5629 5636 5641 5646 5648 5653 5660 5666 5674 5678 5683 5689 5690 5695 5698 5702 5703 5705 5708 5711 5706 5710 5713 5716 5717 5721 5725 5725 5726 5726 5725 5724 5723 5722 5721 5720 5719 5718 5719 5719 5716 5716
5616 5620 5627 5633 5636 5641 5646 5650 5654 5658 5666 5671 5676 5682 5685 5690 5692 5696 5701 5704 5703 5704 5706 5701 5706 5705 5709 5713 5717 5720 5717 5715 5717 5716 5715 5714 5713 5712 5710 5708 5707 5708 5706 5704
5614 5618 5622 5622 5630 5635 5641 5645 5648 5653 5660 5666 5673 5676 5679 5682 5684 5687 5693 5695 5698 5698 5696 5693 5698 5701 5702 5703 5704 5706 5707 5707 5704 5704 5704 5704 5703 5703 5701 5699 5697 5696 5695 5693
5602 5614 5618 5622 5627 5632 5638 5642 5645 5649 5655 5662 5665 5667 5673 5677 5682 5682 5684 5686 5690 5693 5689 5692 5695 5696 5694 5696 5698 5696 5694 5694 5694 5692 5691 5693 5692 5690 5690 5689 5688 5686 5684 5682
5605 5610 5616 5622 5625 5627 5634 5638 5642 5646 5651 5654 5657 5658 5664 5669 5674 5676 5680 5682 5684 5685 5688 5689 5690 5690 5689 5688 5687 5686 5685 5684 5682 5681 5680 5679 5679 5680 5679 5677 5675 5674 5672 5671
5601 5607 5612 5619 5622 5626 5632 5636 5639 5640 5645 5648 5652 5651 5656 5659 5666 5675 5679 5680 5679 5679 5680 5682 5681 5680 5678 5677 5676 5676 5673 5672 5670 5668 5667 5666 5665 5664 5663 5662 5661 5660 5659 5657
5599 5605 5611 5616 5620 5623 5628 5633 5636 5638 5642 5648 5651 5651 5653 5658 5662 5662 5665 5669 5670 5671 5670 5669 5668 5668 5668 5666 5665 5664 5661 5658 5656 5654 5653 5651 5650 5649 5649 5648 5646 5646 5645 5642
5597 5602 5607 5610 5616 5621 5624 5630 5634 5636 5639 5642 5645 5648 5651 5654 5655 5656 5658 5660 5660 5661 5660 5659 5658 5657 5656 5655 5654 5652 5648 5643 5641 5639 5639 5638 5637 5637 5637 5636 5635 5632 5630 5628
5596 5600 5604 5608 5610 5615 5619 5623 5628 5632 5638 5637 5641 5644 5646 5648 5649 5650 5651 5652 5652 5652 5652 5651 5649 5647 5645 5643 5640 5637 5634 5631 5630 5629 5628 5628 5628 5626 5625 5624 5623 5621 5618 5615
5594 5597 5601 5604 5607 5612 5615 5620 5624 5627 5626 5632 5635 5637 5639 5639 5642 5643 5643 5643 5642 5643 5642 5641 5639 5636 5632 5629 5625 5623 5622 5622 5621 5619 5616 5615 5614 5614 5614 5613 5611 5609 5606 5603
5593 5596 5598 5601 5603 5606 5609 5612 5616 5620 5622 5623 5626 5627 5632 5633 5633 5633 5634 5634 5634 5634 5632 5630 5626 5621 5617 5616 5614 5613 5612 5610 5607 5604 5602 5600 5600 5601 5601 5601 5600 5598 5595 5593
5592 5594 5596 5598 5600 5602 5604 5605 5608 5611 5615 5616 5618 5619 5622 5624 5625 5625 5625 5625 5625 5624 5621 5618 5614 5611 5609 5606 5603 5601 5599 5596 5592 5589 5587 5586 5587 5589 5590 5590 5589 5588 5585 5583
5587 5590 5593 5594 5596 5597 5598 5601 5602 5604 5605 5608 5612 5613 5613 5614 5615 5617 5616 5615 5613 5612 5609 5607 5605 5603 5600 5597 5593 5590 5587 5584 5581 5581 5580 5580 5580 5581 5581 5582 5581 5580 5578 5578
5585 5587 5589 5590 5592 5592 5593 5594 5596 5598 5601 5602 5601 5602 5604 5606 5606 5605 5603 5603 5603 5600 5600 5599 5597 5595 5592 5590 5587 5584 5581 5579 5578 5577 5576 5576 5576 5577 5577 5577 5577 5577 5575 5574